User: anonymous   Login
Location: Unspecified
(0.0000°N, 0.0000°E)
Time: 18:21:45
(UTC+00:00)
Language:

STARLINK-4778 - Orbit

View from above orbital plane
View from above orbital plane
View from above satellite
View from above satellite

Ground track
Ground track

The orbit is defined by the following mean orbital elements,

1 53836U          26145.50003470 +.00000000 +00000-0 +31904-2 0 00004
2 53836  53.2184 307.6481 0000915 117.9496 153.5310 15.27972190    02
Epoch (UTC): 25 May 2026 12:00:02
Eccentricity: 0.0000915
inclination: 53.2184°
perigee height: 481 km
apogee height: 483 km
right ascension of ascending node: 307.6481°
argument of perigee: 117.9496°
revolutions per day: 15.27972190
mean anomaly at epoch: 153.5310°

The dashed part of the orbit path shows where the satellite is in the earth's shadow,  

DLR